This is the latest recevied weather packets stored in our database for station/object WR9A-13. If no packets are shown the sender has not sent any weather packets the latest 10 day(s).
| Time | Temp. | Humidity | Pressure | Rain* | Wind** | Luminosity | Snow |
|---|---|---|---|---|---|---|---|
| 1778068516 | 7.78° C | 96% | 1012.9 hPa | 0 mm | - | - | - |
| 1778068224 | 7.22° C | 96% | 1012.8 hPa | 0 mm | - | - | - |
| 1778067920 | 7.22° C | 95% | 1012.8 hPa | 0 mm | - | - | - |
| 1778067637 | 6.67° C | 95% | 1012.7 hPa | 0 mm | - | - | - |
| 1778067324 | 6.11° C | 95% | 1012.4 hPa | 0 mm | - | - | - |
| 1778067040 | 6.11° C | 95% | 1012.5 hPa | 0 mm | - | - | - |
| 1778066727 | 6.11° C | 94% | 1012.3 hPa | 0 mm | - | - | - |
| 1778066415 | 6.11° C | 94% | 1012.4 hPa | 0 mm | - | - | - |
| 1778066132 | 6.11° C | 93% | 1012.3 hPa | 0 mm | - | - | - |
| 1778065819 | 6.11° C | 93% | 1012.2 hPa | 0 mm | - | - | - |
| 1778065516 | 6.11° C | 93% | 1012.1 hPa | 0 mm | - | - | - |
| 1778065223 | 6.11° C | 93% | 1012.1 hPa | 0 mm | - | - | - |
| 1778064931 | 6.11° C | 93% | 1012 hPa | 0 mm | - | - | - |
| 1778064628 | 6.11° C | 93% | 1012 hPa | 0 mm | - | - | - |
| 1778064315 | 6.67° C | 94% | 1011.5 hPa | 0 mm | - | - | - |
| 1778064032 | 6.67° C | 94% | 1011.3 hPa | 0 mm | - | - | - |
| 1778063720 | 6.67° C | 93% | 1011.4 hPa | 0 mm | - | - | - |
| 1778063415 | 6.67° C | 93% | 1011.3 hPa | 0 mm | - | - | - |
| 1778063121 | 6.67° C | 93% | 1011.3 hPa | 0 mm | - | - | - |
| 1778062818 | 6.67° C | 94% | 1011.4 hPa | 0 mm | - | - | - |
| 1778062526 | 6.67° C | 93% | 1011.4 hPa | 0 mm | - | - | - |
| 1778062223 | 6.67° C | 93% | 1011.6 hPa | 0 mm | - | - | - |
| 1778061932 | 7.22° C | 93% | 1011.4 hPa | 0 mm | - | - | - |
| 1778061644 | 7.22° C | 93% | 1011.3 hPa | 0 mm | - | - | - |
| 1778061330 | 7.22° C | 93% | 1011.3 hPa | 0 mm | - | - | - |
* Rain latest hour (hover to see other rain measurements)
** Current wind speed in m/s (hover to see current wind gust speed)